Location: Peebles
(55.6412°N, 3.1714°W)
Time: 02:04:34
(UTC+01:00)

deb r/b Ablestar - Pass Details

Date: 10 July 2022
Orbit: 859 x 1154 km, 67.2° (Epoch: 13 August)

Event Time Altitude Azimuth Distance (km) Brightness Sun altitude
Rises 01:44:01 0° 317° (NW) 4,027 ? -11.9°
Reaches altitude 10° 01:47:09 10° 306° (NW) 3,066 ? -11.9°
Maximum altitude 01:53:03 27° 253° (WSW) 2,033 ? -11.7°
Enters shadow 01:57:51 14° 204° (SSW) 2,728 ? -11.6°
